Terminal Aerodrome Forecast
Issued by NWS Dallas/Fort Worth, TX

Home | Current Version | Previous Version | Text Only | Print | Product List | Glossary On
Versions: 1 2 3 4 5 6 7 8 9 10 11 12 13 14 15 16 17 18 19 20 21 22 23 24 25 26 27 28 29 30 31 32 33 34 35 36 37 38 39 40 41 42 43 44 45 46 47 48 49 50
000
FTUS44 KFWD 152059 AAA
TAFDFW
TAF AMD
KDFW 152059Z 1521/1624 17018G28KT P6SM SCT050 SCT250
     FM160500 17017KT P6SM VCTS BKN035CB
      TEMPO 1605/1607 5SM -TSRA
     FM160900 17015KT P6SM BKN025
     FM161300 18016KT P6SM VCTS BKN025CB
     FM161700 19017KT P6SM SCT035 BKN250=

USA.gov is the U.S. government's official web portal to all federal, state and local government web resources and services.